SCP
0 0 0 0 0 0 0 0 0 0 0 0 0 0 0 0 0 0 0 0 0 0 0 0 0 0 0 0 0 0 0 0 0 0 0 0 0 0 0 0 0 0 0 0
0 0 0 0 0 0 0 0 0 0 0 0 0 0 0 0 0 0 0 0 0 0 0 0 0 0 0 0 0 0 0 0 0 0 0 0 0 0 0 0 0 0 0 0
0 0 0 0 0 0 0 0 0 0 0 0 0 0 0 0 0 0 0 0 0 0 0 0 0 0 0 0 0 0 0 0 0 0 0 0 0 0 0 0 0 0 0 0
0 0 0 0 0 0 0 0 0 0 0 0 0 0 0 0 0 0 0 0 0 0 0 0 0 0 0 0 0 0 0 0 0 0 0 0 0 0 0 0 0 0 0 0
0 0 0 0 0 0 0 0 0 0 0 0 0 0 0 0 0 0 0 0 0 0 0 0 0 0 0 0 0 0 0 0 0 0 0 0 0 0 0 0 0 0 0 0
0 0 0 0 0 0 0 0 0 0 0 0 0 0 0 0 0 0 0 0 0 0 0 0 0 0 0 0 0 0 0 0 0 0 0 0 0 0 0 0 0 0 0 0
0 0 0 0 0 0 0 0 0 0 0 0 0 0 0 0 0 0 0 0 0 0 0 0 0 0 0 0 0 0 0 0 0 0 0 0 0 0 0 0 0 0 0 0
0 0 0 0 0 0 0 0 0 0 0 0 0 0 0 0 0 0 0 0 0 0 0 0 0 0 0 0 0 0 0 0 0 0 0 0 0 0 0 0 0 0 0 0
0 0 0 0 0 0 0 0 0 0 0 0 0 0 0 0 0 0 0 0 0 0 0 0 0 0 0 0 0 0 0 0 0 0 0 0 0 0 0 0 0 0 0 0
0 0 0 0 0 0 0 0 0 0 0 0 0 0 0 0 0 0 0 0 0 0 0 0 0 0 0 0 0 0 0 0 0 0 0 0 0 0 0 0 0 0 0 0
0 0 0 0 0 0 0 0 0 0 0 0 0 0 0 0 0 0 0 0 0 0 0 0 0 0 0 0 0 0 0 0 0 0 0 0 0 0 0 0 0 0 0 0
0 0 0 0 0 0 0 0 0 0 0 0 0 0 0 0 0 0 0 0 0 0 0 0 0 0 0 0 0 0 0 0 0 0 0 0 0 0 0 0 0 0 0 0
0 0 0 0 0 0 0 0 0 0 0 0 0 0 0 0 0 0 0 0 0 0 0 0 0 0 0 0 0 0 0 0 0 0 0 0 0 0 0 0 0 0 0 0
0 0 0 0 0 0 0 0 0 0 0 0 0 0 0 0 0 0 0 0 0 0 0 0 0 0 0 0 0 0 0 0 0 0 0 0 0 0 0 0 0 0 0 0
0 0 0 0 0 0 0 0 0 0 0 0 0 0 0 0 0 0 0 0 0 0 0 0 0 0 0 0 0 0 0 0 0 0 0 0 0 0 0 0 0 0 0 0
0 0 0 0 0 0 0 0 0 0 0 0 0 0 0 0 0 0 0 0 0 0 0 0 0 0 0 0 0 0 0 0 0 0 0 0 0 0 0 0 0 0 0 0
0 0 0 0 0 0 0 0 0 0 0 0 0 0 0 0 0 0 0 0 0 0 0 0 0 0 0 0 0 0 0 0 0 0 0 0 0 0 0 0 0 0 0 0
0 0 0 0 0 0 0 0 0 0 0 0 0 0 0 0 0 0 0 0 0 0 0 0 0 0 0 0 0 0 0 0 0 0 0 0 0 0 0 0 0 0 0 0
0 0 0 0 0 0 0 0 0 0 0 0 0 0 0 0 0 0 0 0 0 0 0 0 0 0 0 0 0 0 0 0 0 0 0 0 0 0 0 0 0 0 0 0
0 0 0 0 0 0 0 0 0 0 0 0 0 0 0 0 0 0 0 0 0 0 0 0 0 0 0 0 0 0 0 0 0 0 0 0 0 0 0 0 0 0 0 0
0 0 0 0 0 0 0 0 0 0 0 0 0 0 0 0 0 0 0 0 0 0 0 0 0 0 0 0 0 0 0 0 0 0 0 0 0 0 0 0 0 0 0 0
0 0 0 0 0 0 0 0 0 0 0 0 0 0 0 0 0 0 0 0 0 0 0 0 0 0 0 0 0 0 0 0 0 0 0 0 0 0 0 0 0 0 0 0
0 0 0 0 0 0 0 0 0 0 0 0 0 0 0 0 0 0 0 0 0 0 0 0 0 0 0 0 0 0 0 0 0 0 0 0 0 0 0 0 0 0 0 0
0 0 0 0 0 0 0 0 0 0 0 0 0 0 0 0 0 0 0 0 0 0 0 0 0 0 0 0 0 0 0 0 0 0 0 0 0 0 0 0 0 0 0 0
0 0 0 0 0 0 0 0 0 0 0 0 0 0 0 0 0 0 0 0 0 0 0 0 0 0 0 0 0 0 0 0 0 0 0 0 0 0 0 0 0 0 0 0
0 0 0 0 0 0 0 0 0 0 0 0 0 0 0 0 0 0 0 0 0 0 0 0 0 0 0 0 0 0 0 0 0 0 0 0 0 0 0 0 0 0 0 0
0 0 0 0 0 0 0 0 0 0 0 0 0 0 0 0 0 0 0 0 0 0 0 0 0 0 0 0 0 0 0 0 0 0 0 0 0 0 0 0 0 0 0 0
Wind_Speed
5 5 3 4 5 3 4 5 5 5 5 5 3 4 4 4 5 5 6 6 6 6 6 6 6 6 6 6 6 6 6 6 6 5 5 4 4 4 3 3 3 3 2 3
5 4 3 6 7 7 6 6 7 7 8 4 2 2 4 5 5 6 6 6 7 7 7 7 6 7 7 7 7 6 6 6 6 5 5 4 4 4 3 3 3 3 3 3
4 2 4 6 6 6 4 4 3 6 6 3 4 5 5 5 5 5 6 7 7 7 7 7 6 6 7 6 7 6 6 6 6 6 5 5 5 4 4 4 3 3 3 3
3 3 5 5 1 1 2 3 3 4 3 3 4 5 5 4 3 5 6 7 7 7 7 6 6 6 6 6 6 6 6 6 6 6 6 5 5 5 4 4 3 3 3 3
2 3 7 2 0 1 1 4 3 4 4 4 4 4 3 2 3 4 5 6 5 5 6 6 6 6 6 6 6 5 6 6 6 6 6 5 5 5 5 4 4 4 3 3
2 3 6 3 0 1 1 4 2 1 3 3 4 3 4 4 5 5 6 5 5 5 5 6 6 6 5 6 6 6 6 6 6 6 6 6 5 5 5 4 4 4 4 3
4 4 7 1 1 2 1 5 2 1 2 2 2 4 5 6 5 5 5 6 6 5 5 5 6 6 6 6 6 6 6 6 6 6 6 6 5 5 5 4 4 4 4 4
3 4 7 2 3 4 4 2 2 2 2 3 4 5 5 5 6 6 6 6 6 5 6 5 5 5 6 7 7 6 6 6 6 6 6 5 5 5 4 4 4 4 4 4
6 7 2 5 4 2 0 2 2 2 3 4 5 5 6 6 5 6 6 6 5 5 6 6 5 5 6 7 7 6 6 6 6 6 5 5 5 5 4 3 3 4 3 4
4 6 3 3 2 1 1 2 3 3 3 3 5 6 6 6 6 5 6 6 6 6 6 7 7 6 6 7 7 6 7 7 6 6 5 5 4 4 4 3 3 4 4 4
5 5 4 2 2 2 2 2 3 3 3 4 4 5 5 5 5 5 6 5 5 6 6 7 7 7 7 7 6 6 7 7 6 5 5 5 4 4 4 4 5 5 4 4
5 3 2 4 2 1 2 3 3 3 4 4 3 5 5 5 5 5 5 5 6 6 7 7 7 8 7 7 6 6 6 6 5 4 4 4 4 5 7 7 9 10 9 8
3 1 2 3 2 1 2 3 3 3 4 5 4 4 5 5 5 5 5 5 6 6 7 7 7 8 8 7 7 6 6 6 5 4 5 5 5 5 6 7 9 10 10 10
1 0 2 2 2 2 2 3 3 3 3 4 4 4 4 4 5 5 6 6 6 6 6 6 7 7 7 7 6 6 6 7 6 4 4 4 5 5 5 5 6 5 7 10
2 2 3 3 2 2 2 2 3 3 3 3 3 4 4 5 5 6 6 6 6 6 6 6 6 7 7 6 7 7 6 5 4 4 4 4 4 4 4 5 5 5 4 6
2 2 3 3 3 3 2 2 3 4 3 3 4 4 5 5 6 6 5 5 5 6 7 6 7 7 7 7 7 6 5 9 7 4 4 4 4 4 4 4 5 4 4 5
2 3 3 3 4 3 3 3 3 4 3 4 4 4 5 5 5 5 5 5 5 6 6 6 7 7 6 6 6 5 5 6 9 6 4 4 4 4 4 4 4 4 4 6
4 4 3 4 4 4 4 3 3 3 4 4 4 4 4 5 6 6 6 6 6 6 6 6 6 6 6 6 5 5 4 4 5 5 4 4 5 4 4 4 5 5 5 6
2 2 3 3 3 3 3 3 3 3 3 3 3 4 5 5 5 5 5 5 6 7 6 6 10 7 6 6 7 4 4 5 5 5 4 6 6 5 4 5 5 5 5 5
2 2 2 3 3 2 3 3 3 3 3 3 3 4 5 5 5 5 5 5 5 4 5 7 6 6 6 6 7 4 4 5 5 5 5 4 4 5 5 5 5 5 5 5
2 2 3 3 3 3 3 3 3 4 3 3 3 5 5 5 5 4 4 5 5 5 5 8 5 5 5 6 7 4 4 5 5 5 5 5 5 5 5 5 6 6 5 5
2 2 3 3 3 3 3 3 3 3 3 3 4 4 5 5 5 4 4 4 5 8 5 4 4 7 8 8 4 4 4 4 4 4 4 4 5 5 5 5 5 5 5 5
2 2 2 2 3 3 3 3 3 3 3 4 4 4 4 4 3 4 5 4 4 7 6 4 8 11 12 6 3 4 4 5 4 4 4 4 5 5 5 6 5 5 5 5
2 2 2 2 2 2 3 3 3 3 3 4 4 4 3 3 3 3 3 7 8 9 5 7 11 12 11 4 4 4 4 4 4 4 4 4 4 5 5 5 5 5 5 6
2 2 2 2 2 2 3 3 3 3 3 3 3 3 3 2 3 4 3 4 8 9 5 7 11 11 6 4 4 4 4 4 5 5 4 4 5 5 5 5 5 5 5 5
2 2 2 2 2 2 2 2 2 3 3 3 3 3 3 3 3 3 3 4 6 8 6 4 5 7 4 4 4 5 5 6 6 5 5 5 5 5 5 6 6 5 5 5
2 1 2 2 2 2 2 2 3 3 3 3 4 4 3 3 3 3 4 4 4 4 4 4 4 4 4 4 5 5 5 5 5 5 5 5 5 5 5 6 6 5 5 5
Wind_Direction
270 281 293 293 289 265 218 233 242 263 278 291 316 326 324 327 329 335 337 339 342 337 330 329 330 330 331 329 329 330 328 327 323 318 320 317 314 308 303 298 295 282 277 276
281 251 268 286 279 266 256 250 252 272 279 285 310 342 335 329 326 325 329 333 334 331 329 328 327 326 326 326 326 327 325 325 325 320 321 317 316 314 310 305 302 297 288 286
287 329 323 280 254 233 230 232 227 248 263 319 336 328 315 309 316 324 331 333 330 327 324 323 322 321 319 319 323 324 324 325 325 323 320 314 311 313 308 302 302 304 299 287
289 333 264 247 98 125 205 253 247 258 289 306 302 304 300 304 332 333 332 328 324 323 322 321 322 322 319 321 321 320 321 324 323 322 319 317 315 311 305 298 297 293 289 282
276 278 273 262 173 133 206 276 254 253 277 300 323 317 301 352 2 331 320 317 314 315 317 322 325 324 322 317 316 317 319 323 322 318 316 316 315 313 307 303 299 291 287 286
251 259 262 269 360 21 91 283 291 252 282 310 344 314 292 336 336 327 326 325 325 326 327 328 326 326 322 319 322 320 318 320 318 314 312 311 309 308 307 306 299 301 298 292
239 251 264 258 145 93 151 267 321 326 294 294 264 251 290 322 329 327 324 325 328 330 328 323 324 326 320 319 316 313 316 317 314 313 312 307 307 310 311 307 304 301 297 294
208 231 257 145 135 189 232 301 330 327 313 296 287 297 310 319 321 325 328 331 333 329 325 323 326 326 320 316 315 317 314 312 311 312 310 311 312 311 313 310 304 301 300 299
206 221 231 169 195 219 5 303 304 311 313 308 299 299 306 311 316 321 325 328 330 327 323 324 328 329 320 316 320 319 317 314 313 312 311 313 312 310 312 309 303 301 300 297
265 265 262 216 222 263 281 281 296 303 301 301 294 299 304 309 315 320 324 326 327 326 324 324 328 328 320 319 321 320 318 316 316 315 315 316 312 307 306 303 297 294 291 290
257 278 302 270 234 244 272 286 299 307 301 294 296 300 302 304 309 313 316 319 321 320 317 317 322 323 322 323 323 317 313 312 315 316 317 314 313 308 303 293 291 294 290 287
234 231 234 273 283 253 262 273 279 290 297 296 290 291 300 300 302 305 308 313 316 315 314 315 318 318 320 321 321 316 312 313 313 315 314 312 312 314 312 305 307 302 300 296
238 297 262 276 289 270 262 277 284 281 282 290 289 283 288 292 300 304 305 308 308 307 308 310 312 313 316 317 317 312 307 309 312 316 315 314 314 312 314 319 316 311 308 305
230 240 277 270 277 292 286 282 279 280 280 279 282 290 292 294 300 303 303 303 303 304 305 307 308 310 315 319 317 314 309 307 310 309 310 311 311 309 308 311 316 317 316 313
240 225 243 270 287 289 288 293 294 290 290 291 295 299 300 300 299 299 300 305 309 307 308 311 312 313 319 320 318 315 312 308 307 307 308 309 310 310 309 309 308 311 316 319
280 274 258 260 268 277 281 283 281 286 293 294 297 298 299 296 294 296 301 308 311 309 310 310 310 312 320 322 320 318 317 317 318 316 313 313 312 313 313 311 310 313 315 315
235 262 262 274 280 283 275 271 272 279 285 288 292 299 302 303 303 303 308 312 304 297 302 307 308 312 318 319 318 316 316 318 318 317 314 312 312 312 312 311 311 312 310 312
222 241 254 258 264 274 280 283 284 286 285 286 296 300 300 299 299 302 307 311 310 307 309 313 313 317 317 316 317 315 316 316 316 313 313 314 313 312 312 311 310 309 311 314
256 262 268 271 270 268 273 279 284 286 290 294 292 290 290 290 293 299 306 311 310 309 317 323 326 331 321 317 322 316 316 316 315 315 315 314 316 317 315 314 314 313 313 314
286 288 287 287 287 279 278 280 283 285 285 286 288 291 293 295 299 301 302 295 289 291 307 319 322 319 319 319 323 315 312 311 311 313 314 313 314 316 317 316 316 315 315 315
291 297 296 293 292 289 282 278 279 282 286 281 278 281 286 293 297 296 298 299 303 310 317 321 324 318 317 320 320 316 312 311 312 313 314 315 315 315 316 317 317 317 315 314
289 290 293 296 297 298 294 287 279 280 287 285 282 283 289 295 298 295 283 279 300 317 323 316 314 317 321 323 320 316 313 313 314 316 315 316 316 316 316 317 316 315 317 318
289 289 289 290 290 292 298 292 281 276 276 280 283 283 282 284 289 294 299 303 308 315 319 312 314 319 322 326 320 314 313 313 312 312 312 312 311 311 311 314 315 315 316 317
295 293 290 291 297 298 298 298 293 288 280 281 282 279 281 290 292 282 286 309 318 317 316 314 319 321 324 327 318 313 311 309 308 307 307 307 307 308 308 310 311 313 313 313
295 290 293 297 293 290 295 306 310 305 300 297 300 303 291 276 282 299 304 307 313 318 316 318 322 325 327 320 317 313 310 306 306 307 305 307 308 307 307 307 307 308 308 309
296 289 282 276 277 289 302 309 306 305 310 312 312 311 307 299 292 296 302 305 307 313 316 313 315 318 319 317 314 313 311 312 314 313 310 307 306 306 306 307 307 306 306 305
310 308 308 309 309 311 305 300 297 300 304 304 306 308 309 308 307 307 308 308 310 310 309 310 311 311 311 311 310 310 309 308 307 306 305 304 303 303 305 305 306 306 306 306